Mitchell, SD

12:46 AM CDT on September 01, 2016 (GMT -0500)
Mitchell Municipal

Weather History for KMHE - December, 2011

Change the Weather History Date:

Saturday, December 24, 2011

  Actual Average Record
Temperature  
Mean Temperature 38 °F 19 °F  
Max Temperature 51 °F 28 °F 51 °F (1936)
Min Temperature 24 °F 10 °F -29 °F (1990)
Degree Days  
Heating Degree Days 27 46  
Month to date heating degree days 922 1044  
Since 1 July heating degree days 2284 2612  
Cooling Degree Days 0 0  
Month to date cooling degree days 0 0  
Year to date cooling degree days 994 824  
Moisture  
Dew Point 17 °F    
Average Humidity 48    
Maximum Humidity 68    
Minimum Humidity 27    
Precipitation  
Precipitation 0.00 in 0.01 in 0.44 in (2009)
Month to date precipitation 0.04 0.37  
Year to date precipitation 19.16 21.44  
Snow  
Snow 0.00 in - 6.40 in (2009)
Month to date snowfall T  
Since 1 July snowfall T  
Snow Depth 0.00 in    
Sea Level Pressure  
Sea Level Pressure 30.24 in    
Wind  
Wind Speed 11 mph (West)    
Max Wind Speed 18 mph    
Max Gust Speed 24 mph    
Visibility 10 miles    
Events      
T = Trace of Precipitation, MM = Missing Value Source: NWS Daily Summary

Daily Weather History Graph

Daily Weather History Graph

Search for Another Location

Airport or City:

Trip Planner

Search our weather history database for the weather conditions in past years. The results will help you decide how hot, cold, wet, or windy it might be!

Date:

Astronomy

Dec. 24, 2011 Rise Set
Actual Time 8:04 AM CST 4:59 PM CST
Civil Twilight 7:31 AM CST 5:32 PM CST
Nautical Twilight 6:54 AM CST 6:08 PM CST
Astronomical Twilight 6:19 AM CST 6:43 PM CST
Moon 7:53 AM CST (12/24) 5:14 PM CST (12/24)
Length of Visible Light 10h 01m
Length of Day
8h 55m
New Moon, 0% of the Moon is Illuminated
Dec 24
New Moon
Dec 24
New
Jan 1
First Quarter
Jan 9
Full
Jan 16
Last Quarter

Hourly Weather History & Observations

Time (CST) Temp. Windchill Dew Point Humidity Pressure Visibility Wind Dir Wind Speed Gust Speed Precip Events Conditions
12:53 AM 28.0 °F 20.8 °F 16.0 °F 61% 30.20 in 10.0 mi WSW 6.9 mph - N/A   Clear
1:53 AM 27.0 °F 16.7 °F 16.0 °F 63% 30.17 in 10.0 mi SW 11.5 mph - N/A   Clear
2:53 AM 27.0 °F 16.7 °F 17.1 °F 66% 30.20 in 10.0 mi West 11.5 mph - N/A   Clear
3:53 AM 26.1 °F 17.6 °F 17.1 °F 69% 30.21 in 10.0 mi West 8.1 mph - N/A   Clear
4:53 AM 27.0 °F 16.7 °F 17.1 °F 66% 30.21 in 10.0 mi West 11.5 mph - N/A   Clear
5:53 AM 28.0 °F 17.0 °F 17.1 °F 63% 30.23 in 10.0 mi WNW 13.8 mph - N/A   Clear
6:53 AM 28.0 °F 19.3 °F 17.1 °F 63% 30.25 in 10.0 mi West 9.2 mph - N/A   Clear
7:53 AM 26.1 °F 18.4 °F 16.0 °F 66% 30.27 in 10.0 mi West 6.9 mph - N/A   Clear
8:53 AM 28.0 °F 19.3 °F 17.1 °F 63% 30.27 in 10.0 mi West 9.2 mph - N/A   Clear
9:53 AM 33.1 °F 24.9 °F 18.0 °F 54% 30.29 in 10.0 mi West 10.4 mph - N/A   Clear
10:53 AM 39.0 °F 31.8 °F 18.0 °F 43% 30.28 in 10.0 mi West 11.5 mph - N/A   Clear
11:53 AM 45.0 °F 39.3 °F 19.0 °F 36% 30.25 in 10.0 mi WNW 11.5 mph - N/A   Clear
12:53 PM 48.9 °F - 18.0 °F 29% 30.22 in 10.0 mi WNW 13.8 mph - N/A   Clear
2:53 PM 48.9 °F - 17.1 °F 28% 30.20 in 10.0 mi West 10.4 mph - N/A   Clear
3:53 PM 48.0 °F - 17.1 °F 29% 30.21 in 10.0 mi West 10.4 mph - N/A   Clear
4:53 PM 44.1 °F 40.8 °F 17.1 °F 34% 30.22 in 10.0 mi WSW 5.8 mph - N/A   Clear
5:53 PM 41.0 °F 35.8 °F 16.0 °F 36% 30.22 in 10.0 mi WSW 8.1 mph - N/A   Clear
6:53 PM 39.0 °F 32.3 °F 16.0 °F 39% 30.21 in 10.0 mi West 10.4 mph - N/A   Clear
7:53 PM 42.1 °F 34.5 °F 16.0 °F 35% 30.24 in 10.0 mi WNW 15.0 mph - N/A   Clear
8:53 PM 37.0 °F 28.9 °F 17.1 °F 44% 30.25 in 10.0 mi West 12.7 mph - N/A   Clear
9:53 PM 35.1 °F 27.9 °F 17.1 °F 48% 30.26 in 10.0 mi West 9.2 mph - N/A   Clear
10:53 PM 32.0 °F 23.6 °F 17.1 °F 54% 30.27 in 10.0 mi West 10.4 mph - N/A   Clear
11:53 PM 32.0 °F 24.2 °F 17.1 °F 54% 30.29 in 10.0 mi West 9.2 mph - N/A   Clear